Regional Weather Roundup
Issued by NWS Wakefield, VA

Home | Current Version | Previous Version | Graphics & Text | Print | Product List | Glossary On
Versions: 1 2 3 4 5 6 7 8 9 10 11 12 13 14 15 16 17 18 19 20 21 22 23 24 25 26 27
000
ASUS41 KAKQ 281715
RWRAKQ

REGIONAL WEATHER ROUNDUP
NATIONAL WEATHER SERVICE WAKEFIELD VA
100 PM EDT THU APR 28 2016

Note: "fair" indicates few or no clouds below 12,000 feet with no
significant weather and/or obstructions to visibility. * = Denotes
station may not report precipitation (e.g., rain,snow,etc.),
thunder or fog.

VAZ042-051-052>054-056-281800-
NORTHERN VIRGINIA

CITY           SKY/WX    TMP DP  RH WIND       PRES   REMARKS
WASH NATIONAL  CLOUDY    54  51  90 E6        30.00S FOG
DULLES         CLOUDY    51  48  89 E9        30.00S
FORT BELVOIR   CLOUDY    54  51  90 VRB1      30.00S
QUANTICO       CLOUDY    56  52  86 SE9       30.00S
FREDERICKSBRG* CLOUDY    55  55 100 E6        29.97F FOG
STAFFORD*      CLOUDY    54  51  92 E8        30.02F FOG
WARRENTON      CLOUDY    56  50  81 NE6       29.98S
CULPEPER*      CLOUDY    56  54  92 E5        29.99S
MANASSAS*      CLOUDY    54  54 100 SE5       29.99S
LEESBURG*      CLOUDY    54  52  94 E7        30.01S
WINCHESTER     CLOUDY    54  50  87 E7        29.97S FOG
FRONT ROYAL*   CLOUDY    54  52  94 E9        29.94F
LURAY*         CLOUDY    57  57 100 N6        29.93F
$$

VAZ048-049-060>072-079>083-281800-
CENTRAL AND SOUTH CENTRAL VIRGINIA

CITY           SKY/WX    TMP DP  RH WIND       PRES   REMARKS
RICHMOND       CLOUDY    57  57 100 E6        29.95F FOG
CHESTERFIELD*  CLOUDY    59  46  63 E5        29.96F
PETERSBURG*    CLOUDY    62  62 100 E5        29.95S FOG
HANOVER        CLOUDY    57  54  89 VRB3      29.98S FOG
TAPPAHANNOCK*  CLOUDY    57  56  97 E6        29.98F
QUINTON*       CLOUDY    58  57  99 E5        29.95F FOG
CHARLOTTSVILLE CLOUDY    59  55  87 NE7       29.96S FOG
GORDONSVILLE*  CLOUDY    56  56  98 NE5       29.96F FOG
ORANGE*        CLOUDY    57  55  94 CALM      29.98F FOG
LOUISA*        CLOUDY    61  57  88 E5        29.95F FOG
BUMPASS*       CLOUDY    55  55  97 E5        29.97S
FARMVILLE*     CLOUDY    63  62  98 NE5       29.93F
CREWE*         CLOUDY    62  62 100 N3        29.94S
FORT PICKETT*  NOT AVBL
CHASE CITY*    CLOUDY    64  63  94 E3        29.92F
CLARKSVILLE*   CLOUDY    64  64 100 E3        29.92S
SOUTH HILL*    CLOUDY    63  62  96 CALM      29.98F
LAWRENCEVILLE* CLOUDY    61  61  99 E3        29.93F
EMPORIA*       DRIZZLE   63  61  94 CALM      29.95R
$$

VAZ088>098-281800-
SOUTHEAST VIRGINIA

CITY           SKY/WX    TMP DP  RH WIND       PRES   REMARKS
NORFOLK        CLOUDY    58  55  90 E6        29.97S
VIRGINIA BEACH CLOUDY    60  55  83 E6        29.97R HAZE
NORFOLK NAVAL  LGT RAIN  57  56  96 E12       29.96F FOG
WEST POINT*    CLOUDY    58  56  95 SE9       29.97F
SALUDA*        CLOUDY    56  55  97 E8        29.97F
NEWPORT NEWS   LGT RAIN  58  56  93 E10       29.95F FOG
LANGLEY AFB    LGT RAIN  57  55  94 E14       29.94F
FORT EUSTIS    CLOUDY    59  59 100 E8        29.93F
WILLIAMSBURG*  CLOUDY    61  57  88 E9        29.96F
HR EXEC AP*    CLOUDY    61  57  88 E8        29.97F
FRANKLIN*      CLOUDY    62  59  89 E6        29.94F
US460-WAKEFLD  CLOUDY    60  57  89 VRB6      29.94F
$$

VAZ020-022-025-037-045-281800-
WEST CENTRAL AND SOUTHWEST VIRGINIA

CITY           SKY/WX    TMP DP  RH WIND       PRES   REMARKS
STAUNTON*      CLOUDY    64  62  92 E7        29.93F
WAYNESBORO*    CLOUDY    59  55  85 MISG      29.93S
HOT SPRINGS VA PTSUNNY   68  55  62 W14       29.94F
LYNCHBURG      CLOUDY    62  59  90 NE3       29.94F
DANVILLE       CLOUDY    73  64  73 CALM      29.91F
SOUTH BOSTON*  CLOUDY    65  64  94 CALM      29.92F
MARTINSVILLE   FAIR      75  61  61 SW3       29.92F
ROANOKE        FAIR      73  63  70 SE12G21   29.90F
BLACKSBURG     PTSUNNY   78  58  50 W12       29.93F
DUBLIN*        FAIR      77  57  50 W13       29.93S
MARION*        PTSUNNY   72  60  65 W20G25    29.97F
HILLSVILLE*    PTSUNNY   73  60  63 SW10      29.94F
RICHLANDS*     CLOUDY    70  42  36 SW8       29.96S
WISE*          FAIR      70  54  56 SW18      29.97S
ABINGDON*      PTSUNNY   73  61  66 W15       29.94F
$$

MDZ021>025-VAZ099-100-281800-
SOUTHERN MARYLAND AND THE DELMARVA PENINSULA

CITY           SKY/WX    TMP DP  RH WIND       PRES   REMARKS
PATUXENT RIVER DRIZZLE   53  50  89 E13       29.99F FOG
BAY BRIDGE APT NOT AVBL
LEONARDTOWN    CLOUDY    52  50  93 E6        30.00F
DOVER          LGT RAIN  50  44  79 E16       30.02F
GEORGETOWN     LGT RAIN  49  46  90 E9        30.03S FOG
EASTON         RAIN     N/A N/A N/A E9        30.04F
CAMBRIDGE        N/A     52  50  93 E6        29.99F
SALISBURY      LGT RAIN  52  50  93 E8        30.00S FOG
OCEAN CITY     RAIN      51  49  92 E13       30.01S FOG
WALLOPS ISLAND CLOUDY    53  51  93 E14       29.99F FOG
ACCOMACK*      CLOUDY   N/A N/A N/A E9G16     29.98F
$$

NCZ012>017-030>032-281800-
NORTH CENTRAL AND EASTERN NORTH CAROLINA

CITY           SKY/WX    TMP DP  RH WIND       PRES   REMARKS
ROANOKE RAPIDS PTSUNNY   68  64  88 SE7       29.92F
RALEIGH        MOSUNNY   79  67  66 SW7       29.91F
ELIZABETH CITY CLOUDY    64  60  87 NE9       29.95F
AHOSKIE*       CLOUDY    64  62  93 NE6       29.94F
EDENTON*       CLOUDY    76  67  72 N5        29.93S
CURRITUCK*     CLOUDY    61  60  97 N8        29.96F
KILL DEVIL HLS CLOUDY    67  61  78 E3        29.94S
MANTEO         NOT AVBL
CAPE HATTERAS  MOSUNNY   75  68  78 SW9       29.94F
TARBORO*       FAIR      78  65  65 N5        29.92F
GOLDSBORO      MOSUNNY   81  70  69 SW12G18   29.90F
WASHINGTON     PTSUNNY   78  68  69 SW8       29.92F
GREENVILLE     PTSUNNY   79  68  69 W7        29.94F
NEW BERN       MOSUNNY   83  66  56 W13       29.92F
WILMINGTON     CLOUDY    79  65  62 SW9       29.93F
$$

VAZ048-281800-
ELSEWHERE

CITY           SKY/WX    TMP DP  RH WIND       PRES   REMARKS
HARRISBURG PA  LGT RAIN  48  36  63 E6        30.04R
BALTIMORE      LGT RAIN  52  49  89 NE10      30.00F FOG
ANNAPOLIS      LGT RAIN  53  50  89 E13       29.98F FOG
ANDREWS AFB    CLOUDY    52  50  93 VRB3      30.00R
PHILADELPHIA   LGT RAIN  56  33  42 E8        30.05R
HENDERSON NC   MOSUNNY   74  66  77 S5        29.91F
GREENSBORO     MOSUNNY   78  65  63 SW5       29.91F
ROCKY MOUNT    MOSUNNY   79  66  64 S7        29.91F
$$

VAZ100-281800-
MARINE

STATION/POSITION TIME  TEMP    WIND        PRES    WAVE   SWELL
                       AIR SEA DIR/SP/G            HT/PER HT/PER
                 (UTC) (F)     (DEG/KT/KT) (MB)    (FT/S) (FT/S)
BRANDYWINE LGT   1600   50     100/ 18/ 22 1016.7R
CAPE MAY NJ      1600   48 58   80/ 12/ 18 1016.7R
LEWES DE         1600   49 56  100/ 14/ 18 1016.6R
15NM E FENWICK I 1650   49 52              1016.1F   3/ 7
OCEAN-CITY-INLET 1600   52 54   70/  7/ 12 1015.7F
WACHAPREAGUE VA  1600   53 61   60/ 13/ 15 1015.4F
THOMAS POINT MD  1700   53 58   90/ 15/ 16 1016.4F
GOOSES REEF MD   1700   54 58  110/ 12/ 16 1016.1F   1/ 3
COVE POINT MD    1600   52     140/ 10/ 14 1016.6F
SOLOMONS ISLAND  1600   53 62   80/ 11/ 13   N/A
BISHOPS HEAD MD  1600   53 60   90/  9/ 12 1015.2S
POTOMAC MD       1700   54 59  110/ 12/ 14 1014.4F   2/ 3
CAMBRIDGE MD     1600   53 62  100/  7/ 10 1015.5S
LEWISETTA VA     1600   55 61  110/ 14/ 17 1014.9F
RAPPAHANNOCK LGT 1600           70/ 13/ 15 1015.9S
STINGRAY PT      1700   56 61  100/ 10/ 12 1015.3F   1/ 2
YORK RVR RNG VA  1600   56     100/ 10/ 11 1014.6F
YORKTOWN VA      1600   57 62  100/ 11/ 13 1015.0R
JAMESTOWN VA     1700   59 67   90/  8/ 12   N/A     1
DOMINION TERM VA 1600   56      80/ 13/ 15 1015.0S
KIPTOPEKE VA     1600      60   90/ 10/ 18   N/A
CHES BAY BRIDGE  1600   54 57   60/ 12/ 14 1014.6R
CAPE HENRY VA    1600   54      80/ 11/ 12   N/A
CHESAPEAKE LGHT  1600   53      60/ 13/ 13 1015.6S
WILLOUBY STN VA  1600   55      80/ 10/ 12 1016.0R
CAPE HENRY BUOY  1612      57                N/A     3/ 6
CAPE CHARLES BUO 1626      56                N/A     3/ 6   2/ 6
OFFSHORE WE BUOY 1621      55                N/A     4/ 6   3/ 6
64NM E OF VA BCH 1650   56 55   60/  4/  4 1014.4R   3/ 6   3/ 6
DUCK PIER NC     1600   60 66  100/  6/  7 1014.2R
44100 DUCK FRF   1624      59                N/A     3/ 5
44056 DUCK FRF   1611      58                N/A     3/ 6
OREGON INLET NC  1600   64 62   60/  8/ 12 1013.9F
HATTERAS NC      1600   73 67  210/ 11/ 16 1014.0F
DIAMOND SHLS NC  1650   73 72  220/ 16/ 17 1013.9F   3/ 6   2/ 6
CAPE LOOKOUT NC  1700   74     210/ 10/ 13 1014.0F
$$




USA.gov is the U.S. government's official web portal to all federal, state and local government web resources and services.